Temperature
15 15 14 14 14 13 13 13 12 12 12 12 12 11 11 10 10 10 10 9 9 9 9 9 9 9 8 8 8 8 7 7 6 6 6 5 5 5 4 4 3 3 2
15 15 14 14 13 13 13 12 12 12 12 12 11 11 10 10 10 10 10 9 9 9 9 9 9 8 8 8 8 7 7 7 6 6 6 5 4 4 3 3 3 2 2
15 15 14 14 13 13 13 12 12 12 11 11 11 11 10 10 10 10 10 10 9 9 9 9 8 8 8 8 7 7 7 6 6 5 5 4 4 3 2 2 2 1 1
15 15 14 14 13 13 13 12 12 12 11 11 11 11 10 10 10 10 10 9 9 9 9 8 8 8 8 7 7 7 6 6 5 5 4 3 3 2 2 1 1 1 0
14 14 14 14 13 13 12 12 12 11 11 11 10 10 10 10 10 10 9 9 9 9 8 8 8 8 7 7 7 6 6 5 5 4 3 2 2 1 1 0 -0 -1 -1
14 14 13 13 13 12 12 12 11 11 10 10 10 10 10 10 10 10 9 9 9 8 8 8 8 7 7 7 6 6 5 4 4 3 2 2 1 1 -0 -1 -1 -2 -2
13 13 13 13 13 12 12 11 11 10 10 10 10 10 10 10 9 9 9 9 9 8 8 7 7 7 7 6 6 5 4 4 3 2 1 1 0 -0 -1 -1 -2 -2 -3
13 13 13 13 12 12 11 11 11 10 10 10 10 10 9 9 9 9 9 8 8 8 7 7 7 6 6 5 5 4 4 3 2 2 1 0 -1 -1 -2 -2 -3 -3 -3
12 12 12 12 12 11 11 10 10 10 10 10 9 9 9 9 9 8 8 8 7 7 7 7 6 6 5 5 4 4 3 2 2 1 0 -1 -1 -2 -2 -3 -3 -4 -4
12 12 12 12 12 11 11 10 10 10 9 9 9 9 9 9 8 8 7 7 7 7 6 6 5 5 4 4 3 3 2 2 1 0 -1 -1 -2 -2 -3 -4 -4 -5 -5
12 12 12 11 11 11 10 10 9 9 9 9 9 8 8 8 8 7 7 7 6 6 6 5 5 4 4 3 3 2 1 1 -0 -1 -1 -2 -2 -3 -4 -4 -5 -5 -6
11 11 11 11 10 10 10 9 9 9 9 8 8 8 7 7 7 7 6 6 6 5 5 4 4 3 3 2 2 1 0 -0 -1 -2 -2 -3 -3 -4 -4 -5 -5 -6 -7
11 11 10 10 10 10 9 9 9 8 8 8 8 7 7 7 6 6 6 5 5 5 4 4 3 3 2 1 1 0 -0 -1 -2 -2 -3 -4 -4 -5 -5 -6 -6 -6 -7
10 10 10 10 9 9 9 9 9 8 8 8 7 7 7 6 6 6 5 5 4 4 4 3 2 2 1 1 0 -1 -1 -2 -3 -3 -4 -5 -5 -6 -6 -6 -7 -7 -7
10 9 9 9 9 8 8 8 8 8 8 8 7 7 6 6 5 5 5 4 4 3 3 2 2 1 1 -0 -1 -1 -2 -3 -3 -4 -5 -5 -6 -6 -7 -7 -8 -8 -9
9 9 9 8 8 8 8 7 6 7 7 6 6 6 6 5 5 4 4 3 3 3 2 2 1 0 -0 -1 -2 -2 -3 -4 -4 -5 -6 -6 -7 -7 -8 -8 -8 -9 -9
10 9 9 8 8 8 7 7 6 6 6 5 5 5 5 5 4 4 3 3 2 2 2 1 0 -0 -1 -2 -2 -3 -4 -4 -5 -6 -6 -7 -7 -8 -8 -9 -9 -9 -10
9 9 9 8 8 8 7 7 7 6 5 5 4 4 4 4 3 3 3 2 2 1 1 0 -0 -1 -2 -2 -3 -4 -4 -5 -6 -6 -7 -7 -8 -8 -9 -9 -10 -10 -10
8 8 8 8 7 7 7 6 6 6 5 5 4 3 3 3 3 2 2 2 1 1 -0 -1 -1 -2 -2 -3 -4 -4 -5 -6 -6 -7 -7 -8 -8 -9 -9 -10 -10 -10 -11
8 8 8 7 7 7 6 6 5 5 5 4 4 3 3 2 2 2 1 1 0 -0 -1 -1 -2 -3 -3 -4 -4 -5 -6 -6 -7 -7 -8 -8 -9 -9 -10 -10 -10 -11 -11
7 7 7 7 6 6 6 6 5 5 4 4 3 3 2 2 2 1 1 0 -1 -1 -2 -2 -3 -3 -4 -4 -5 -6 -6 -7 -7 -8 -8 -9 -9 -9 -10 -10 -11 -11 -11
7 7 6 6 6 6 5 5 5 4 4 3 2 2 2 1 1 0 -0 -1 -1 -2 -2 -3 -3 -4 -4 -5 -5 -6 -6 -7 -8 -8 -8 -9 -9 -10 -10 -10 -11 -11 -11
6 6 6 6 5 5 5 4 4 4 3 3 2 2 1 1 0 -0 -1 -1 -2 -3 -3 -4 -4 -5 -5 -5 -6 -6 -7 -7 -8 -8 -9 -9 -9 -10 -10 -11 -11 -11 -11
6 6 5 5 5 5 4 4 3 3 2 2 1 1 0 -0 -1 -1 -2 -2 -3 -3 -4 -4 -5 -5 -5 -6 -6 -7 -7 -8 -8 -8 -9 -9 -10 -10 -10 -11 -11 -11 -11
5 5 5 5 5 4 4 3 3 2 2 1 1 0 -0 -1 -1 -2 -2 -3 -3 -4 -4 -5 -5 -5 -6 -6 -6 -7 -7 -8 -8 -9 -9 -9 -10 -10 -11 -11 -11 -11 -11
5 5 5 4 4 4 3 3 2 2 1 1 0 -0 -1 -1 -2 -2 -3 -3 -4 -4 -5 -5 -5 -6 -6 -6 -7 -7 -7 -8 -8 -9 -9 -10 -10 -10 -11 -11 -11 -11 -11
Wind_Speed
18 17 16 16 15 14 13 14 14 13 14 15 15 15 14 14 13 12 11 10 11 9 8 9 8 6 5 4 4 4 4 4 4 3 1 0 1 2 3 5 7 9 10
15 15 15 14 14 14 13 13 13 14 14 14 15 15 14 14 13 13 13 12 11 11 10 9 8 6 6 5 5 5 4 4 4 4 2 0 2 2 1 2 5 7 9
13 14 15 14 15 15 14 13 13 13 13 13 14 14 14 13 13 12 12 12 11 10 10 10 9 8 7 5 5 5 4 3 2 2 2 1 1 1 1 2 4 5 9
12 14 15 15 15 14 13 13 13 13 13 13 13 13 12 12 12 11 11 10 10 9 9 9 8 9 8 7 5 5 3 3 2 1 1 1 2 1 1 3 4 4 5
12 12 13 13 13 13 13 12 12 12 12 12 12 11 11 10 10 11 10 10 9 8 7 7 7 7 7 6 5 5 4 3 2 2 2 2 2 2 2 2 4 4 5
13 12 12 12 13 13 13 12 12 12 12 12 12 12 11 8 12 15 12 9 9 9 8 7 6 6 6 6 6 6 6 5 4 3 2 2 3 2 2 2 3 4 5
12 12 12 13 13 13 13 13 13 12 12 11 11 11 10 10 15 15 14 10 9 8 8 7 5 5 6 4 5 5 4 4 4 4 3 3 3 2 2 3 3 4 5
12 12 12 13 14 13 13 13 12 11 11 11 11 11 10 11 15 16 15 9 8 7 7 7 7 6 5 5 4 3 2 1 1 1 2 2 1 1 1 2 3 4 4
12 13 13 14 14 14 14 13 11 11 10 10 10 11 11 11 14 16 14 9 8 7 6 7 7 6 7 7 5 4 2 0 1 1 2 2 3 4 4 2 3 3 5
12 13 13 13 14 14 14 12 11 11 11 11 10 10 11 11 14 15 14 8 8 7 6 6 8 8 8 7 5 5 3 1 1 2 2 3 3 3 4 2 1 3 4
11 12 12 13 13 13 12 11 13 12 12 11 11 10 10 11 13 15 13 8 8 8 6 5 5 8 8 7 6 4 3 3 2 2 1 2 2 2 3 3 2 2 3
11 12 13 13 12 12 14 12 13 14 14 12 12 10 8 9 11 12 13 11 10 8 7 5 5 9 8 7 6 5 5 5 3 2 2 1 2 2 2 3 4 5 5
12 13 13 14 13 13 14 14 12 12 11 10 10 10 8 7 9 14 14 14 14 8 7 10 10 11 9 6 7 7 5 3 3 2 1 1 1 2 2 3 4 6 7
14 14 14 14 13 12 10 10 11 11 11 11 10 10 9 8 7 7 8 9 12 10 8 10 12 11 8 7 6 4 3 2 2 1 1 1 2 2 2 2 3 3 4
14 14 14 13 14 12 10 8 9 7 11 13 10 10 11 9 9 13 10 8 7 8 9 6 5 4 4 3 3 3 3 2 2 2 2 2 2 2 3 3 3 3 3
15 14 12 12 12 13 13 12 15 13 16 16 14 13 10 13 17 16 16 15 15 15 9 6 5 4 4 3 3 2 2 2 2 1 1 2 2 3 3 3 3 3 4
15 14 12 13 13 13 13 14 13 14 19 18 18 18 17 19 19 18 17 16 15 13 7 6 5 4 4 3 3 2 1 1 1 1 2 2 2 3 3 4 4 4 4
14 15 14 12 13 13 12 12 13 14 12 10 13 18 19 19 18 18 17 13 8 7 5 5 5 4 3 3 2 2 1 1 1 1 1 2 2 2 3 4 4 4 5
14 12 13 13 12 13 13 13 12 13 13 12 10 11 16 17 17 15 12 7 7 6 5 4 4 4 3 3 2 2 1 1 1 1 1 2 2 2 3 4 4 8 6
12 17 16 14 13 13 13 13 13 12 12 11 10 9 8 9 8 7 6 6 6 5 5 4 4 4 3 2 2 1 1 1 1 1 1 2 2 2 3 4 4 4 5
13 15 18 15 13 13 13 13 12 12 11 10 9 10 12 8 8 7 6 5 5 5 5 4 3 3 3 2 2 1 1 0 1 1 1 2 2 3 3 3 4 4 5
13 13 13 13 13 12 12 12 12 12 12 12 9 10 14 8 7 7 6 5 5 4 4 4 3 2 2 2 2 1 0 0 1 1 1 2 2 3 3 3 4 4 4
14 14 14 13 13 16 14 12 11 12 11 11 10 9 8 7 7 7 6 5 5 4 4 4 3 2 2 2 1 1 1 1 1 1 1 2 2 3 3 3 4 5 5
14 15 15 14 13 13 12 12 11 12 11 11 9 9 8 7 7 7 6 5 5 4 4 4 3 3 2 1 1 0 1 2 1 1 2 2 3 3 3 4 4 5 5
14 14 14 14 14 13 12 12 12 11 11 10 9 9 8 7 7 6 5 5 5 4 3 3 2 2 1 1 0 1 2 3 3 3 4 3 3 4 4 4 4 5 5
14 14 13 12 12 12 12 12 11 11 10 9 9 8 8 7 6 6 5 4 4 3 3 2 2 1 1 1 1 2 3 4 5 6 5 3 3 4 4 4 5 4 5
Wind_Direction
187 187 187 188 187 185 185 183 180 179 178 182 184 187 188 187 183 183 184 180 184 187 186 189 193 179 175 183 182 186 191 181 218 254 244 158 161 217 243 246 263 273 281
184 182 183 181 180 182 183 180 177 177 178 179 180 183 185 185 184 185 185 184 187 189 188 185 187 178 181 185 185 192 199 195 198 233 250 251 232 232 239 261 276 282 283
177 177 178 179 180 182 180 177 175 175 174 175 176 180 181 182 182 183 183 184 187 187 183 183 183 177 188 188 186 195 199 198 185 201 239 253 273 277 279 289 294 290 291
169 172 177 180 180 179 175 173 172 172 172 172 173 175 176 177 178 177 177 177 178 178 176 177 177 181 188 185 185 188 180 184 186 202 251 283 288 307 318 290 297 291 296
166 171 174 173 170 168 167 167 165 165 166 165 165 167 168 171 174 170 169 169 170 167 164 163 167 170 173 173 172 173 169 174 176 205 243 267 276 310 284 278 290 298 296
164 166 163 163 163 162 161 159 157 158 157 158 161 162 162 165 163 162 162 162 161 162 162 157 155 154 160 167 169 175 174 176 189 198 223 243 261 267 281 301 304 318 306
160 159 158 158 158 157 155 155 157 157 154 155 157 156 157 158 156 155 154 156 155 159 157 155 154 155 154 158 160 162 172 175 183 189 207 232 249 258 277 287 292 292 283
155 156 156 155 155 153 152 155 155 154 154 154 152 152 150 154 153 151 147 144 139 143 146 149 148 148 151 148 143 144 151 159 174 161 189 231 268 282 262 275 283 298 292
156 157 157 156 154 153 153 153 148 145 145 147 147 147 146 150 150 147 142 140 136 135 134 136 141 142 144 141 142 147 138 89 57 63 25 357 342 336 344 5 347 336 315
158 156 153 153 153 152 150 145 140 140 139 138 136 139 142 144 146 144 141 141 139 136 129 130 132 138 144 145 145 146 155 175 109 68 30 3 1 350 347 1 327 316 313
147 144 145 147 146 143 139 137 135 133 131 129 125 125 130 135 141 141 140 140 142 136 131 128 128 131 134 135 126 128 136 110 100 89 51 21 14 7 355 347 330 290 292
139 139 140 139 138 137 134 134 135 134 131 128 124 119 117 124 130 134 132 128 129 129 133 131 129 128 123 120 114 101 93 88 86 77 53 17 352 333 324 328 324 312 293
136 135 134 132 133 136 137 137 137 136 135 135 133 129 125 119 124 126 125 120 118 116 122 124 120 118 111 106 99 95 88 87 88 75 32 337 321 318 330 333 329 325 313
138 136 134 131 130 128 129 135 138 141 139 138 138 135 131 126 127 129 127 119 113 110 110 111 107 105 97 96 95 88 81 87 84 82 5 340 344 347 341 336 326 326 320
137 136 132 129 126 119 108 107 124 131 145 146 146 144 143 142 143 137 133 127 125 121 116 102 97 100 94 88 88 84 78 66 52 38 26 357 344 342 336 335 329 326 317
140 138 134 131 126 122 113 94 76 96 106 112 121 126 123 129 132 129 126 126 125 126 115 116 115 115 114 111 105 86 68 65 55 38 14 353 343 337 334 334 333 326 318
144 141 137 135 133 131 127 122 112 90 88 98 109 115 122 128 128 127 125 123 122 118 108 116 118 119 115 111 108 103 83 59 61 42 10 350 342 337 333 330 330 328 322
138 137 137 136 135 133 131 128 128 126 118 104 104 114 120 123 124 125 124 116 111 100 107 119 120 118 115 112 109 97 78 55 39 18 355 339 334 329 327 327 326 325 323
138 138 135 132 130 129 127 124 123 121 121 120 114 113 116 117 116 117 117 113 122 118 114 113 114 115 113 110 106 99 92 71 29 3 338 331 328 327 321 319 321 329 331
134 133 132 131 129 128 127 127 127 127 127 128 129 129 126 119 117 115 104 107 113 116 116 115 113 113 113 113 109 102 88 52 10 346 324 324 326 326 318 317 320 321 319
134 133 128 127 130 131 131 131 131 130 130 128 129 135 135 127 125 122 117 112 114 117 116 114 112 113 112 114 113 108 96 359 333 324 319 322 326 322 314 312 313 312 313
134 134 133 131 130 129 128 128 129 128 129 126 125 127 126 116 119 120 117 113 109 109 111 114 113 112 118 127 125 121 113 321 322 324 322 324 322 315 313 313 313 312 315
131 129 127 125 125 127 124 125 126 127 127 127 128 126 123 119 120 119 118 115 112 107 106 108 109 99 92 100 112 134 183 259 275 286 316 315 312 308 308 309 310 312 314
131 131 129 128 126 127 128 127 127 127 127 129 129 128 126 123 121 120 118 116 113 108 109 111 116 121 111 94 69 339 292 283 281 276 270 270 285 291 294 296 299 302 303
131 130 130 131 131 130 129 128 128 128 129 130 130 128 126 124 123 123 122 120 118 115 112 113 120 127 130 135 277 289 287 289 286 278 267 259 263 273 280 285 290 295 295
129 128 128 129 130 131 132 132 132 131 130 130 129 129 128 127 127 126 125 124 122 119 114 116 127 135 148 270 276 283 289 289 287 287 280 260 253 269 278 281 283 287 292
Height
1401 1407 1413 1419 1425 1431 1436 1441 1445 1450 1455 1459 1463 1468 1472 1477 1481 1485 1489 1493 1496 1499 1502 1504 1506 1507 1509 1510 1511 1511 1511 1511 1510 1510 1510 1508 1507 1506 1504 1503 1501 1498 1496
1394 1400 1406 1413 1419 1425 1430 1435 1440 1445 1450 1454 1458 1463 1467 1472 1476 1480 1484 1487 1490 1493 1496 1499 1501 1503 1504 1505 1506 1506 1506 1506 1506 1504 1504 1503 1502 1501 1499 1497 1495 1493 1490
1388 1394 1400 1406 1412 1418 1424 1429 1435 1440 1445 1449 1454 1458 1462 1467 1471 1475 1479 1482 1485 1488 1491 1493 1496 1498 1499 1500 1501 1501 1501 1501 1501 1500 1498 1497 1496 1495 1493 1492 1490 1488 1485
1382 1388 1394 1400 1406 1412 1418 1424 1429 1435 1440 1444 1449 1453 1458 1462 1466 1470 1474 1477 1481 1484 1487 1489 1491 1493 1494 1495 1496 1496 1496 1496 1495 1494 1493 1492 1491 1489 1488 1486 1483 1481 1479
1377 1383 1388 1395 1401 1408 1413 1419 1425 1430 1435 1440 1445 1449 1454 1458 1462 1466 1470 1473 1477 1479 1482 1484 1487 1488 1490 1491 1491 1491 1491 1491 1490 1489 1488 1487 1486 1484 1483 1480 1478 1475 1472
1372 1378 1384 1391 1397 1403 1408 1414 1420 1426 1431 1436 1441 1445 1450 1454 1458 1463 1466 1469 1472 1475 1478 1480 1482 1484 1485 1486 1486 1487 1487 1486 1485 1485 1484 1482 1481 1480 1478 1476 1473 1470 1466
1368 1374 1380 1387 1392 1398 1404 1410 1416 1421 1427 1432 1437 1441 1446 1450 1455 1459 1462 1466 1468 1471 1473 1476 1478 1479 1481 1482 1482 1482 1482 1481 1481 1481 1480 1478 1477 1476 1474 1472 1469 1466 1463
1365 1371 1377 1382 1388 1394 1400 1406 1412 1417 1423 1428 1433 1438 1442 1447 1451 1455 1459 1462 1465 1467 1470 1472 1474 1475 1476 1477 1477 1477 1477 1477 1477 1476 1476 1475 1473 1472 1470 1468 1465 1461 1458
1362 1368 1373 1379 1384 1390 1396 1402 1408 1414 1419 1425 1430 1435 1439 1444 1448 1452 1455 1459 1461 1464 1467 1468 1470 1472 1472 1473 1473 1473 1474 1473 1473 1472 1472 1471 1469 1467 1466 1463 1460 1456 1452
1360 1365 1370 1376 1382 1387 1393 1400 1405 1411 1417 1422 1427 1432 1437 1441 1445 1449 1452 1455 1458 1461 1463 1465 1467 1468 1469 1469 1470 1470 1469 1469 1469 1468 1467 1466 1465 1463 1461 1459 1456 1453 1449
1358 1363 1369 1374 1380 1386 1392 1398 1403 1409 1415 1420 1425 1430 1435 1439 1443 1447 1450 1452 1455 1458 1460 1462 1463 1465 1465 1466 1466 1466 1466 1466 1465 1464 1463 1462 1461 1459 1457 1455 1453 1450 1447
1357 1362 1367 1373 1379 1384 1390 1396 1402 1407 1413 1418 1423 1428 1433 1437 1441 1444 1447 1450 1453 1455 1457 1459 1460 1462 1462 1463 1463 1463 1463 1462 1461 1460 1459 1458 1457 1455 1453 1451 1449 1447 1444
1355 1360 1366 1371 1377 1383 1389 1394 1400 1405 1410 1415 1421 1425 1430 1435 1438 1442 1445 1448 1450 1453 1455 1457 1458 1459 1459 1460 1460 1460 1459 1459 1458 1457 1456 1455 1454 1452 1450 1448 1445 1443 1441
1353 1359 1364 1370 1376 1382 1388 1394 1398 1403 1408 1414 1418 1423 1428 1432 1436 1440 1443 1446 1448 1450 1452 1454 1455 1456 1457 1457 1457 1457 1456 1456 1455 1454 1453 1452 1450 1449 1446 1444 1442 1439 1436
1352 1357 1363 1368 1374 1380 1386 1393 1398 1403 1408 1413 1417 1422 1426 1430 1434 1438 1440 1443 1446 1448 1450 1451 1452 1453 1454 1454 1454 1454 1453 1453 1452 1451 1450 1449 1447 1446 1444 1441 1439 1436 1434
1349 1355 1361 1366 1372 1378 1384 1391 1398 1404 1409 1414 1418 1422 1426 1430 1433 1436 1439 1442 1444 1446 1448 1449 1450 1451 1451 1451 1451 1451 1451 1450 1450 1449 1448 1446 1445 1443 1441 1439 1437 1434 1432
1347 1353 1359 1365 1371 1377 1383 1388 1394 1402 1408 1413 1417 1422 1425 1429 1432 1435 1438 1440 1443 1444 1446 1447 1448 1448 1449 1449 1449 1449 1449 1448 1447 1447 1445 1444 1442 1441 1439 1437 1435 1432 1430
1347 1353 1358 1364 1370 1376 1382 1388 1394 1399 1404 1411 1416 1421 1425 1428 1431 1434 1436 1439 1441 1442 1444 1445 1446 1447 1447 1447 1447 1447 1447 1446 1445 1444 1443 1442 1440 1438 1437 1435 1433 1431 1428
1346 1351 1358 1364 1370 1376 1382 1388 1394 1399 1404 1409 1414 1419 1424 1427 1430 1433 1435 1438 1439 1441 1442 1443 1444 1445 1445 1445 1445 1445 1444 1444 1443 1442 1441 1439 1438 1437 1435 1433 1431 1429 1427
1346 1351 1357 1363 1369 1376 1382 1388 1393 1399 1404 1409 1413 1418 1422 1425 1428 1431 1434 1436 1438 1439 1440 1442 1442 1443 1443 1443 1443 1443 1442 1442 1441 1440 1439 1438 1436 1435 1433 1431 1430 1428 1425
1344 1351 1357 1363 1369 1375 1381 1387 1393 1398 1403 1408 1413 1417 1421 1424 1427 1430 1432 1435 1436 1438 1439 1440 1441 1441 1441 1441 1441 1441 1440 1439 1439 1438 1437 1435 1434 1433 1431 1430 1428 1426 1424
1344 1350 1357 1363 1369 1376 1381 1387 1393 1398 1403 1408 1412 1416 1420 1424 1426 1429 1431 1433 1435 1436 1438 1439 1439 1439 1439 1439 1439 1439 1438 1437 1436 1435 1434 1433 1432 1431 1429 1428 1426 1424 1422
1344 1351 1357 1364 1370 1376 1382 1387 1393 1398 1403 1408 1412 1415 1419 1422 1425 1428 1430 1432 1434 1435 1436 1437 1437 1437 1438 1437 1437 1437 1436 1435 1434 1433 1432 1431 1430 1429 1427 1426 1424 1423 1421
1345 1351 1357 1363 1370 1376 1382 1387 1392 1397 1402 1407 1411 1415 1418 1421 1424 1427 1429 1431 1432 1433 1434 1435 1435 1436 1436 1435 1435 1434 1434 1433 1432 1431 1430 1429 1428 1427 1425 1424 1423 1421 1420
1346 1352 1358 1363 1369 1376 1381 1387 1392 1397 1402 1406 1410 1414 1417 1420 1423 1425 1427 1429 1431 1432 1433 1433 1434 1434 1434 1433 1433 1432 1431 1431 1430 1429 1428 1427 1426 1425 1423 1422 1421 1420 1418
1346 1352 1358 1364 1370 1376 1381 1386 1391 1396 1401 1405 1409 1413 1416 1419 1422 1424 1426 1428 1429 1430 1431 1432 1432 1432 1431 1431 1430 1430 1429 1428 1427 1426 1425 1424 1423 1422 1421 1420 1419 1418 1417